STARLINK-33743, 63440

Orbit data source: Space-Track

STARLINK-33743, 63440 is a payload satellite owned by SpaceX/Seattle (US) in LEO that was launched on Fri, 04 Apr 2025 UTC via an FALCON 9 launch vehicle from the Air Force Western Test Range (AFWTR). Payload-class satellites include a variety of spacecraft equipped with specific instruments for various scientific and technological missions. These include communications satellites like Starlink; space stations such as the ISS; scientific satellites like the Hubble; Earth observation satellites from companies like Planet Labs, Umbra, and HawkEye 360; GPS; miniature CubeSats for education and research; and military/defense satellites.

Loading next visibility...
Identifier
63440, 2025-069H
Orbit
LEO
Country
Flag of USUS
Related business
Manufacturer
SpaceX/Seattle
Mission
Operational Commercial Communications
Bus & Motor
STARLINK V2MO, Unknown motor
Mass
575 kg wet, ~530 kg dry
Launch date (UTC)
2025-04-04 (8 months ago)
Launch vehicle
FALCON 9
Launch site
Air Force Western Test Range (AFWTR)
Object type
Payload
Rocket body
Debris
Shape & HBR
Box + 2 Pan, 17.7 m
Radar Cross Section
36.964 m², Large (>1 m²)

Expand to show TLE details & history
Last TLE update: 19 hours ago

TLE from 19 hours ago
0 STARLINK-33743
1 63440U 25069H   25348.91558331  .00019822  00000-0  67966-3 0  9995
2 63440  53.1597 176.3739 0001447  72.3167 287.7991 15.30197408 40316
Epoch: 2025-12-14T21:58Z
TLE epoch observation values (Epoch: 2025-12-14T21:58:26.397Z)
Latitude
-0.0001°
Longitude
122.94219°
Altitude
475.819 km
Speed
7.629 km/s
True Right ascension
11h 45m 29s
True Declination
0° 00' 00"
Sunlit
Object was in daylight at epoch
Visualization orbit readout
Latitude
Unknown
Longitude
Unknown
Altitude
Unknown
Speed
Unknown
Apparent Right ascension
Unknown
Apparent Declination
Unknown
Sunlit
N/A
Visualization observer readout
Local Sidereal Time
15:11:34
Azimuth
Unknown
Elevation
Unknown
Doppler factor
Unknown
Orbital elements
Apogee altitude
476.471 km
Perigee altitude
474.488 km
Semi-major axis
6,853.616 km
Eccentricity
0.00014
Inclination
53.1597°
RAAN
176.3739°
Arg. of periapsis
72.3167°
True anomaly
287.78331°
Mean anomaly
287.7991°
Eccentric anomaly
287.79121°
Mean motion
3.82528 °/min
Orbital period
94.11 mins
BSTAR
0.00067966
Loading maneuver chart data...
Computing Atmospheric mass density...
Loading historical data...
Loading historical data...
Loading historical data...
Loading historical data...
Loading historical data...
Loading historical data...
Loading historical data...

Documentation

Showing up to 5 results
|